Tracking 32968 objects as of 17-Jan-2026
HD Live streaming from Space Station
objects crossing your sky now

CZ-4 DEB

Track CZ-4 DEB now!
10-day predictions


NORAD ID: 20888
Int'l Code: 1990-081AY
Perigee: 676.0 km
Apogee: 927.5 km
Inclination: 99.2 °
Period: 100.8 minutes
Semi major axis: 7172 km
RCS: 0.1391 m2 (medium)
Launch date: September 3, 1990
Source: People's Republic of China (PRC)
Launch site: Taiyaun Space Center, China (TSC)

Note: This is SATELLITE DEBRIS
Your satellite tracking list
Your tracking list is empty




NASA's NSSDC Master Catalog

Two Line Element Set (TLE):
1 20888U 90081AY  26017.55416493  .00002997  00000-0  10189-2 0  9995
2 20888  99.2104 233.4367 0175357 311.6946  46.9341 14.29138063805691
Source of the keplerian elements: AFSPC